Home > Weather > Basel > Past weeks

Flag for Switzerland Past Weather in Basel, Basel-Stadt, Switzerland — Yesterday and Last 2 Weeks

Now
67 °F

Sunny.


Feels Like: 67 °F
Forecast: 65 / 90 °F
Wind: 3 mph from Southwest

Location: Bale-Mulhouse

Current Time: Aug 26, 2016 at 9:00:32 AM

Latest Report: Aug 26, 2016 at 8:00 AM


Visibility: 19 mi

Pressure: 30.06 "Hg

Humidity: 89%

Dew Point: 64 °F

Location of BaselLocation

Past Weather in Basel — Graph

°F

Basel Temperature Yesterday

Maximum temperature yesterday: 91 °F (at 5:00 PM)
Minimum temperature yesterday: 59 °F (at 6:00 AM)
Average temperature yesterday: 75 °F

High & Low Weather Summary for the Past Weeks

 TemperatureHumidityPressure
High91 °F (Aug 25, 5:00 PM)98% (Aug 11, 8:00 AM)30.38 "Hg (Aug 11, 8:00 AM)
Low49 °F (Aug 11, 8:00 AM)33% (Aug 25, 4:00 PM)29.79 "Hg (Aug 17, 6:00 PM)
Average68 °F73%30.10 "Hg
* Reported Aug 11 8:00 AM — Aug 26 8:00 AM, Basel, Weather by CustomWeather, © 2016

Note: Actual official high and low records may vary slightly from our data, if they occured in-between our weather recording intervals... More about our weather records

Advertising

Basel Weather History for the Previous 24 Hours

Scroll right to see more
 ConditionsComfort  
Time TempWeatherWind HumidityBarometerVisibility
8:00 AM
Fri, Aug 26
67 °FSunny.3 mph89%30.06 "Hg19 mi
7:00 AM65 °FSunny.6 mph93%30.06 "Hg19 mi
6:00 AM64 °FClear.3 mph91%30.05 "Hg19 mi
5:00 AM65 °FClear.5 mph91%30.04 "Hg19 mi
4:00 AM63 °FMild.3 mph92%30.03 "Hg19 mi
3:00 AM63 °FMild.1 mph90%30.03 "Hg25 mi
2:00 AM63 °FMild.3 mph92%30.02 "Hg28 mi
1:00 AM64 °FMild.2 mph92%30.02 "Hg25 mi
12:00 AM65 °FClear.2 mph90%30.01 "Hg31 mi
11:00 PM
Thu, Aug 25
67 °FClear.2 mph88%30.01 "Hg37 mi
10:00 PM71 °FClear.2 mph83%30.00 "Hg37 mi
8:00 PM83 °FSunny.2 mph62%29.95 "Hg37 mi
7:00 PM90 °FSunny.3 mph41%29.94 "Hg37 mi
6:00 PM91 °FPassing clouds.5 mph37%29.94 "Hg37 mi
5:00 PM91 °FPassing clouds.6 mph35%29.95 "Hg37 mi
4:00 PM91 °FPassing clouds.6 mph33%29.97 "Hg37 mi
3:00 PM89 °FSunny.5 mph37%29.98 "Hg37 mi
2:00 PM88 °FSunny.7 mph37%30.00 "Hg37 mi
1:00 PM85 °FSunny.2 mph49%30.01 "Hg31 mi
12:00 PM82 °FSunny.2 mph52%30.03 "Hg31 mi
11:00 AM78 °FSunny.5 mph57%30.05 "Hg37 mi
10:00 AM75 °FSunny.6 mph62%30.06 "Hg37 mi
9:00 AM71 °FSunny.3 mph68%30.07 "Hg31 mi
Weather by CustomWeather, © 2016

See weather overviewHow to use our weather pages